Year,Month,Day,Hour,Minute,Value (Times are PST for temperature in C)
2017,09,04,00,00,20.40
2017,09,04,00,01,20.30
2017,09,04,00,02,20.30
2017,09,04,00,03,20.30
2017,09,04,00,04,20.30
2017,09,04,00,05,20.30
2017,09,04,00,06,20.30
2017,09,04,00,07,20.30
2017,09,04,00,08,20.20
2017,09,04,00,09,20.20
2017,09,04,00,10,20.20
2017,09,04,00,11,20.20
2017,09,04,00,12,20.20
2017,09,04,00,13,20.20
2017,09,04,00,14,20.10
2017,09,04,00,15,20.10
2017,09,04,00,16,20.10
2017,09,04,00,17,20.10
2017,09,04,00,18,20.00
2017,09,04,00,19,20.00
2017,09,04,00,20,19.90
2017,09,04,00,21,19.90
2017,09,04,00,22,19.90
2017,09,04,00,23,19.90
2017,09,04,00,24,19.90
2017,09,04,00,25,19.90
2017,09,04,00,26,19.90
2017,09,04,00,27,20.00
2017,09,04,00,28,20.00
2017,09,04,00,29,20.00
2017,09,04,00,30,20.00
2017,09,04,00,31,20.00
2017,09,04,00,32,20.00
2017,09,04,00,33,20.00
2017,09,04,00,34,19.90
2017,09,04,00,35,19.90
2017,09,04,00,36,19.80
2017,09,04,00,37,19.80
2017,09,04,00,38,19.80
2017,09,04,00,39,19.70
2017,09,04,00,40,19.70
2017,09,04,00,41,19.70
2017,09,04,00,42,19.70
2017,09,04,00,43,19.70
2017,09,04,00,44,19.60
2017,09,04,00,45,19.60
2017,09,04,00,46,19.60
2017,09,04,00,47,19.60
2017,09,04,00,48,19.60
2017,09,04,00,49,19.60
2017,09,04,00,50,19.60
2017,09,04,00,51,19.60
2017,09,04,00,52,19.60
2017,09,04,00,53,19.50
2017,09,04,00,54,19.50
2017,09,04,00,55,19.40
2017,09,04,00,56,19.40
2017,09,04,00,57,19.40
2017,09,04,00,58,19.40
2017,09,04,00,59,19.40
2017,09,04,01,00,19.40
2017,09,04,01,01,19.40
2017,09,04,01,02,19.40
2017,09,04,01,03,19.40
2017,09,04,01,04,19.40
2017,09,04,01,05,19.30
2017,09,04,01,06,19.30
2017,09,04,01,07,19.30
2017,09,04,01,08,19.30
2017,09,04,01,09,19.30
2017,09,04,01,10,19.30
2017,09,04,01,11,19.30
2017,09,04,01,12,19.30
2017,09,04,01,13,19.30
2017,09,04,01,14,19.30
2017,09,04,01,15,19.30
2017,09,04,01,16,19.20
2017,09,04,01,17,19.20
2017,09,04,01,18,19.20
2017,09,04,01,19,19.20
2017,09,04,01,20,19.20
2017,09,04,01,21,19.20
2017,09,04,01,22,19.10
2017,09,04,01,23,19.10
2017,09,04,01,24,19.10
2017,09,04,01,25,19.10
2017,09,04,01,26,19.10
2017,09,04,01,27,19.10
2017,09,04,01,28,19.00
2017,09,04,01,29,19.00
2017,09,04,01,30,19.00
2017,09,04,01,31,18.90
2017,09,04,01,32,18.90
2017,09,04,01,33,18.90
2017,09,04,01,34,18.80
2017,09,04,01,35,18.80
2017,09,04,01,36,18.80
2017,09,04,01,37,18.80
2017,09,04,01,38,18.80
2017,09,04,01,39,18.80
2017,09,04,01,40,18.80
2017,09,04,01,41,18.80
2017,09,04,01,42,18.80
2017,09,04,01,43,18.80
2017,09,04,01,44,18.80
2017,09,04,01,45,18.80
2017,09,04,01,46,18.80
2017,09,04,01,47,18.90
2017,09,04,01,48,18.80
2017,09,04,01,49,18.90
2017,09,04,01,50,18.80
2017,09,04,01,51,18.80
2017,09,04,01,52,18.80
2017,09,04,01,53,18.70
2017,09,04,01,54,18.70
2017,09,04,01,55,18.70
2017,09,04,01,56,18.70
2017,09,04,01,57,18.70
2017,09,04,01,58,18.70
2017,09,04,01,59,18.70
2017,09,04,02,00,18.60
2017,09,04,02,01,18.60
2017,09,04,02,02,18.60
2017,09,04,02,03,18.60
2017,09,04,02,04,18.60
2017,09,04,02,05,18.70
2017,09,04,02,06,18.70
2017,09,04,02,07,18.70
2017,09,04,02,08,18.70
2017,09,04,02,09,18.70
2017,09,04,02,10,18.70
2017,09,04,02,11,18.70
2017,09,04,02,12,18.70
2017,09,04,02,13,18.70
2017,09,04,02,14,18.70
2017,09,04,02,15,18.70
2017,09,04,02,16,18.70
2017,09,04,02,17,18.70
2017,09,04,02,18,18.70
2017,09,04,02,19,18.70
2017,09,04,02,20,18.70
2017,09,04,02,21,18.70
2017,09,04,02,22,18.70
2017,09,04,02,23,18.70
2017,09,04,02,24,18.70
2017,09,04,02,25,18.70
2017,09,04,02,26,18.70
2017,09,04,02,27,18.70
2017,09,04,02,28,18.70
2017,09,04,02,29,18.70
2017,09,04,02,30,18.70
2017,09,04,02,31,18.70
2017,09,04,02,32,18.70
2017,09,04,02,33,18.70
2017,09,04,02,34,18.70
2017,09,04,02,35,18.70
2017,09,04,02,36,18.70
2017,09,04,02,37,18.70
2017,09,04,02,38,18.60
2017,09,04,02,39,18.60
2017,09,04,02,40,18.60
2017,09,04,02,41,18.50
2017,09,04,02,42,18.50
2017,09,04,02,43,18.40
2017,09,04,02,44,18.40
2017,09,04,02,45,18.30
2017,09,04,02,46,18.30
2017,09,04,02,47,18.30
2017,09,04,02,48,18.30
2017,09,04,02,49,18.30
2017,09,04,02,50,18.30
2017,09,04,02,51,18.30
2017,09,04,02,52,18.30
2017,09,04,02,53,18.30
2017,09,04,02,54,18.20
2017,09,04,02,55,18.20
2017,09,04,02,56,18.20
2017,09,04,02,57,18.20
2017,09,04,02,58,18.20
2017,09,04,02,59,18.10
2017,09,04,03,00,18.10
2017,09,04,03,01,18.10
2017,09,04,03,02,18.10
2017,09,04,03,03,18.00
2017,09,04,03,04,18.00
2017,09,04,03,05,18.00
2017,09,04,03,06,18.00
2017,09,04,03,07,18.00
2017,09,04,03,08,18.00
2017,09,04,03,09,18.00
2017,09,04,03,10,18.00
2017,09,04,03,11,18.00
2017,09,04,03,12,18.00
2017,09,04,03,13,18.00
2017,09,04,03,14,18.00
2017,09,04,03,15,17.90
2017,09,04,03,16,17.90
2017,09,04,03,17,17.90
2017,09,04,03,18,17.90
2017,09,04,03,19,17.90
2017,09,04,03,20,17.90
2017,09,04,03,21,17.90
2017,09,04,03,22,17.90
2017,09,04,03,23,17.80
2017,09,04,03,24,17.80
2017,09,04,03,25,17.80
2017,09,04,03,26,17.80
2017,09,04,03,27,17.80
2017,09,04,03,28,17.70
2017,09,04,03,29,17.70
2017,09,04,03,30,17.70
2017,09,04,03,31,17.60
2017,09,04,03,32,17.60
2017,09,04,03,33,17.60
2017,09,04,03,34,17.50
2017,09,04,03,35,17.50
2017,09,04,03,36,17.50
2017,09,04,03,37,17.50
2017,09,04,03,38,17.40
2017,09,04,03,39,17.40
2017,09,04,03,40,17.40
2017,09,04,03,41,17.40
2017,09,04,03,42,17.40
2017,09,04,03,43,17.40
2017,09,04,03,44,17.30
2017,09,04,03,45,17.30
2017,09,04,03,46,17.30
2017,09,04,03,47,17.30
2017,09,04,03,48,17.20
2017,09,04,03,49,17.20
2017,09,04,03,50,17.20
2017,09,04,03,51,17.20
2017,09,04,03,52,17.20
2017,09,04,03,53,17.30
2017,09,04,03,54,17.30
2017,09,04,03,55,17.40
2017,09,04,03,56,17.40
2017,09,04,03,57,17.40
2017,09,04,03,58,17.50
2017,09,04,03,59,17.50
2017,09,04,04,00,17.50
2017,09,04,04,01,17.50
2017,09,04,04,02,17.50
2017,09,04,04,03,17.50
2017,09,04,04,04,17.50
2017,09,04,04,05,17.40
2017,09,04,04,06,17.40
2017,09,04,04,07,17.40
2017,09,04,04,08,17.30
2017,09,04,04,09,17.30
2017,09,04,04,10,17.30
2017,09,04,04,11,17.20
2017,09,04,04,12,17.20
2017,09,04,04,13,17.20
2017,09,04,04,14,17.20
2017,09,04,04,15,17.20
2017,09,04,04,16,17.20
2017,09,04,04,17,17.20
2017,09,04,04,18,17.20
2017,09,04,04,19,17.20
2017,09,04,04,20,17.20
2017,09,04,04,21,17.20
2017,09,04,04,22,17.20
2017,09,04,04,23,17.20
2017,09,04,04,24,17.10
2017,09,04,04,25,17.10
2017,09,04,04,26,17.10
2017,09,04,04,27,17.10
2017,09,04,04,28,17.10
2017,09,04,04,29,17.10
2017,09,04,04,30,17.10
2017,09,04,04,31,17.10
2017,09,04,04,32,17.10
2017,09,04,04,33,17.10
2017,09,04,04,34,17.10
2017,09,04,04,35,17.10
2017,09,04,04,36,17.10
2017,09,04,04,37,17.10
2017,09,04,04,38,17.10
2017,09,04,04,39,17.10
2017,09,04,04,40,17.00
2017,09,04,04,41,17.00
2017,09,04,04,42,17.00
2017,09,04,04,43,16.90
2017,09,04,04,44,16.90
2017,09,04,04,45,16.90
2017,09,04,04,46,16.90
2017,09,04,04,47,16.90
2017,09,04,04,48,16.90
2017,09,04,04,49,16.80
2017,09,04,04,50,16.80
2017,09,04,04,51,16.80
2017,09,04,04,52,16.70
2017,09,04,04,53,16.70
2017,09,04,04,54,16.70
2017,09,04,04,55,16.70
2017,09,04,04,56,16.70
2017,09,04,04,57,16.70
2017,09,04,04,58,16.70
2017,09,04,04,59,16.70
2017,09,04,05,00,16.70
2017,09,04,05,01,16.70
2017,09,04,05,02,16.70
2017,09,04,05,03,16.70
2017,09,04,05,04,16.70
2017,09,04,05,05,16.80
2017,09,04,05,06,16.80
2017,09,04,05,07,16.80
2017,09,04,05,08,16.80
2017,09,04,05,09,16.80
2017,09,04,05,10,16.80
2017,09,04,05,11,16.80
2017,09,04,05,12,16.80
2017,09,04,05,13,16.80
2017,09,04,05,14,16.80
2017,09,04,05,15,16.80
2017,09,04,05,16,16.80
2017,09,04,05,17,16.80
2017,09,04,05,18,16.80
2017,09,04,05,19,16.80
2017,09,04,05,20,16.70
2017,09,04,05,21,16.70
2017,09,04,05,22,16.70
2017,09,04,05,23,16.60
2017,09,04,05,24,16.60
2017,09,04,05,25,16.60
2017,09,04,05,26,16.50
2017,09,04,05,27,16.50
2017,09,04,05,28,16.50
2017,09,04,05,29,16.50
2017,09,04,05,30,16.40
2017,09,04,05,31,16.40
2017,09,04,05,32,16.40
2017,09,04,05,33,16.50
2017,09,04,05,34,16.50
2017,09,04,05,35,16.50
2017,09,04,05,36,16.50
2017,09,04,05,37,16.50
2017,09,04,05,38,16.50
2017,09,04,05,39,16.50
2017,09,04,05,40,16.50
2017,09,04,05,41,16.50
2017,09,04,05,42,16.50
2017,09,04,05,43,16.50
2017,09,04,05,44,16.50
2017,09,04,05,45,16.40
2017,09,04,05,46,16.40
2017,09,04,05,47,16.40
2017,09,04,05,48,16.40
2017,09,04,05,49,16.50
2017,09,04,05,50,16.50
2017,09,04,05,51,16.50
2017,09,04,05,52,16.50
2017,09,04,05,53,16.60
2017,09,04,05,54,16.60
2017,09,04,05,55,16.60
2017,09,04,05,56,16.60
2017,09,04,05,57,16.60
2017,09,04,05,58,16.60
2017,09,04,05,59,16.60
2017,09,04,06,00,16.60
2017,09,04,06,01,16.60
2017,09,04,06,02,16.50
2017,09,04,06,03,16.50
2017,09,04,06,04,16.50
2017,09,04,06,05,16.50
2017,09,04,06,06,16.50
2017,09,04,06,07,16.50
2017,09,04,06,08,16.50
2017,09,04,06,09,16.50
2017,09,04,06,10,16.60
2017,09,04,06,11,16.60
2017,09,04,06,12,16.60
2017,09,04,06,13,16.60
2017,09,04,06,14,16.50
2017,09,04,06,15,16.50
2017,09,04,06,16,16.50
2017,09,04,06,17,16.50
2017,09,04,06,18,16.50
2017,09,04,06,19,16.50
2017,09,04,06,20,16.50
2017,09,04,06,21,16.50
2017,09,04,06,22,16.50
2017,09,04,06,23,16.40
2017,09,04,06,24,16.40
2017,09,04,06,25,16.40
2017,09,04,06,26,16.40
2017,09,04,06,27,16.40
2017,09,04,06,28,16.40
2017,09,04,06,29,16.30
2017,09,04,06,30,16.30
2017,09,04,06,31,16.30
2017,09,04,06,32,16.30
2017,09,04,06,33,16.20
2017,09,04,06,34,16.20
2017,09,04,06,35,16.20
2017,09,04,06,36,16.20
2017,09,04,06,37,16.20
2017,09,04,06,38,16.20
2017,09,04,06,39,16.10
2017,09,04,06,40,16.10
2017,09,04,06,41,16.10
2017,09,04,06,42,16.10
2017,09,04,06,43,16.10
2017,09,04,06,44,16.10
2017,09,04,06,45,16.10
2017,09,04,06,46,16.10
2017,09,04,06,47,16.10
2017,09,04,06,48,16.10
2017,09,04,06,49,16.10
2017,09,04,06,50,16.10
2017,09,04,06,51,16.10
2017,09,04,06,52,16.10
2017,09,04,06,53,16.10
2017,09,04,06,54,16.10
2017,09,04,06,55,16.10
2017,09,04,06,56,16.10
2017,09,04,06,57,16.10
2017,09,04,06,58,16.10
2017,09,04,06,59,16.10
2017,09,04,07,00,16.00
2017,09,04,07,01,16.00
2017,09,04,07,02,16.10
2017,09,04,07,03,16.10
2017,09,04,07,04,16.10
2017,09,04,07,05,16.10
2017,09,04,07,06,16.10
2017,09,04,07,07,16.10
2017,09,04,07,08,16.10
2017,09,04,07,09,16.10
2017,09,04,07,10,16.10
2017,09,04,07,11,16.10
2017,09,04,07,12,16.20
2017,09,04,07,13,16.20
2017,09,04,07,14,16.20
2017,09,04,07,15,16.30
2017,09,04,07,16,16.30
2017,09,04,07,17,16.30
2017,09,04,07,18,16.40
2017,09,04,07,19,16.40
2017,09,04,07,20,16.50
2017,09,04,07,21,16.50
2017,09,04,07,22,16.60
2017,09,04,07,23,16.60
2017,09,04,07,24,16.60
2017,09,04,07,25,16.70
2017,09,04,07,26,16.70
2017,09,04,07,27,16.70
2017,09,04,07,28,16.80
2017,09,04,07,29,16.80
2017,09,04,07,30,16.80
2017,09,04,07,31,16.80
2017,09,04,07,32,16.90
2017,09,04,07,33,16.90
2017,09,04,07,34,16.90
2017,09,04,07,35,16.90
2017,09,04,07,36,17.00
2017,09,04,07,37,17.00
2017,09,04,07,38,17.00
2017,09,04,07,39,17.10
2017,09,04,07,40,17.10
2017,09,04,07,41,17.10
2017,09,04,07,42,17.10
2017,09,04,07,43,17.20
2017,09,04,07,44,17.20
2017,09,04,07,45,17.20
2017,09,04,07,46,17.30
2017,09,04,07,47,17.30
2017,09,04,07,48,17.30
2017,09,04,07,49,17.40
2017,09,04,07,50,17.40
2017,09,04,07,51,17.40
2017,09,04,07,52,17.50
2017,09,04,07,53,17.50
2017,09,04,07,54,17.60
2017,09,04,07,55,17.60
2017,09,04,07,56,17.60
2017,09,04,07,57,17.60
2017,09,04,07,58,17.70
2017,09,04,07,59,17.70
2017,09,04,08,00,17.70
2017,09,04,08,01,17.70
2017,09,04,08,02,17.70
2017,09,04,08,03,17.70
2017,09,04,08,04,17.70
2017,09,04,08,05,17.70
2017,09,04,08,06,17.70
2017,09,04,08,07,17.70
2017,09,04,08,08,17.70
2017,09,04,08,09,17.70
2017,09,04,08,10,17.70
2017,09,04,08,11,17.70
2017,09,04,08,12,17.80
2017,09,04,08,13,17.80
2017,09,04,08,14,17.80
2017,09,04,08,15,17.90
2017,09,04,08,16,17.90
2017,09,04,08,17,18.00
2017,09,04,08,18,18.10
2017,09,04,08,19,18.10
2017,09,04,08,20,18.20
2017,09,04,08,21,18.20
2017,09,04,08,22,18.30
2017,09,04,08,23,18.40
2017,09,04,08,24,18.40
2017,09,04,08,25,18.50
2017,09,04,08,26,18.60
2017,09,04,08,27,18.60
2017,09,04,08,28,18.70
2017,09,04,08,29,18.80
2017,09,04,08,30,18.80
2017,09,04,08,31,18.90
2017,09,04,08,32,19.00
2017,09,04,08,33,19.00
2017,09,04,08,34,19.10
2017,09,04,08,35,19.20
2017,09,04,08,36,19.30
2017,09,04,08,37,19.30
2017,09,04,08,38,19.40
2017,09,04,08,39,19.50
2017,09,04,08,40,19.60
2017,09,04,08,41,19.70
2017,09,04,08,42,19.80
2017,09,04,08,43,19.90
2017,09,04,08,44,20.00
2017,09,04,08,45,20.00
2017,09,04,08,46,20.10
2017,09,04,08,47,20.20
2017,09,04,08,48,20.30
2017,09,04,08,49,20.30
2017,09,04,08,50,20.40
2017,09,04,08,51,20.50
2017,09,04,08,52,20.60
2017,09,04,08,53,20.70
2017,09,04,08,54,20.70
2017,09,04,08,55,20.80
2017,09,04,08,56,20.90
2017,09,04,08,57,21.00
2017,09,04,08,58,21.00
2017,09,04,08,59,21.10
2017,09,04,09,00,21.20
2017,09,04,09,01,21.30
2017,09,04,09,02,21.40
2017,09,04,09,03,21.50
2017,09,04,09,04,21.60
2017,09,04,09,05,21.70
2017,09,04,09,06,21.80
2017,09,04,09,07,21.90
2017,09,04,09,08,22.00
2017,09,04,09,09,22.10
2017,09,04,09,10,22.20
2017,09,04,09,11,22.30
2017,09,04,09,12,22.40
2017,09,04,09,13,22.50
2017,09,04,09,14,22.60
2017,09,04,09,15,22.60
2017,09,04,09,16,22.70
2017,09,04,09,17,22.70
2017,09,04,09,18,22.80
2017,09,04,09,19,22.80
2017,09,04,09,20,22.90
2017,09,04,09,21,22.90
2017,09,04,09,22,23.00
2017,09,04,09,23,23.00
2017,09,04,09,24,23.00
2017,09,04,09,25,23.00
2017,09,04,09,26,23.10
2017,09,04,09,27,23.10
2017,09,04,09,28,23.10
2017,09,04,09,29,23.10
2017,09,04,09,30,23.20
2017,09,04,09,31,23.20
2017,09,04,09,32,23.20
2017,09,04,09,33,23.30
2017,09,04,09,34,23.30
2017,09,04,09,35,23.40
2017,09,04,09,36,23.40
2017,09,04,09,37,23.50
2017,09,04,09,38,23.60
2017,09,04,09,39,23.60
2017,09,04,09,40,23.70
2017,09,04,09,41,23.80
2017,09,04,09,42,23.80
2017,09,04,09,43,23.90
2017,09,04,09,44,23.90
2017,09,04,09,45,24.00
2017,09,04,09,46,24.00
2017,09,04,09,47,24.10
2017,09,04,09,48,24.10
2017,09,04,09,49,24.20
2017,09,04,09,50,24.20
2017,09,04,09,51,24.30
2017,09,04,09,52,24.30
2017,09,04,09,53,24.40
2017,09,04,09,54,24.50
2017,09,04,09,55,24.50
2017,09,04,09,56,24.60
2017,09,04,09,57,24.60
2017,09,04,09,58,24.70
2017,09,04,09,59,24.70
2017,09,04,10,00,24.80
2017,09,04,10,01,24.80
2017,09,04,10,02,24.90
2017,09,04,10,03,24.90
2017,09,04,10,04,25.00
2017,09,04,10,05,25.00
2017,09,04,10,06,25.10
2017,09,04,10,07,25.10
2017,09,04,10,08,25.20
2017,09,04,10,09,25.30
2017,09,04,10,10,25.30
2017,09,04,10,11,25.40
2017,09,04,10,12,25.50
2017,09,04,10,13,25.60
2017,09,04,10,14,25.70
2017,09,04,10,15,25.70
2017,09,04,10,16,25.80
2017,09,04,10,17,25.90
2017,09,04,10,18,25.90
2017,09,04,10,19,26.00
2017,09,04,10,20,26.00
2017,09,04,10,21,26.10
2017,09,04,10,22,26.20
2017,09,04,10,23,26.20
2017,09,04,10,24,26.20
2017,09,04,10,25,26.20
2017,09,04,10,26,26.30
2017,09,04,10,27,26.30
2017,09,04,10,28,26.30
2017,09,04,10,29,26.30
2017,09,04,10,30,26.30
2017,09,04,10,31,26.40
2017,09,04,10,32,26.40
2017,09,04,10,33,26.50
2017,09,04,10,34,26.50
2017,09,04,10,35,26.60
2017,09,04,10,36,26.60
2017,09,04,10,37,26.70
2017,09,04,10,38,26.80
2017,09,04,10,39,26.80
2017,09,04,10,40,26.80
2017,09,04,10,41,26.90
2017,09,04,10,42,26.90
2017,09,04,10,43,26.90
2017,09,04,10,44,26.90
2017,09,04,10,45,26.90
2017,09,04,10,46,26.90
2017,09,04,10,47,27.00
2017,09,04,10,48,27.00
2017,09,04,10,49,27.00
2017,09,04,10,50,27.00
2017,09,04,10,51,27.00
2017,09,04,10,52,27.00
2017,09,04,10,53,27.00
2017,09,04,10,54,27.00
2017,09,04,10,55,27.00
2017,09,04,10,56,27.00
2017,09,04,10,57,27.00
2017,09,04,10,58,27.00
2017,09,04,10,59,27.10
2017,09,04,11,00,27.10
2017,09,04,11,01,27.10
2017,09,04,11,02,27.10
2017,09,04,11,03,27.10
2017,09,04,11,04,27.10
2017,09,04,11,05,27.10
2017,09,04,11,06,27.20
2017,09,04,11,07,27.20
2017,09,04,11,08,27.20
2017,09,04,11,09,27.20
2017,09,04,11,10,27.30
2017,09,04,11,11,27.30
2017,09,04,11,12,27.40
2017,09,04,11,13,27.40
2017,09,04,11,14,27.40
2017,09,04,11,15,27.40
2017,09,04,11,16,27.50
2017,09,04,11,17,27.60
2017,09,04,11,18,27.60
2017,09,04,11,19,27.70
2017,09,04,11,20,27.70
2017,09,04,11,21,27.80
2017,09,04,11,22,27.90
2017,09,04,11,23,27.90
2017,09,04,11,24,28.00
2017,09,04,11,25,28.10
2017,09,04,11,26,28.10
2017,09,04,11,27,28.20
2017,09,04,11,28,28.20
2017,09,04,11,29,28.30
2017,09,04,11,30,28.30
2017,09,04,11,31,28.30
2017,09,04,11,32,28.30
2017,09,04,11,33,28.40
2017,09,04,11,34,28.40
2017,09,04,11,35,28.40
2017,09,04,11,36,28.40
2017,09,04,11,37,28.50
2017,09,04,11,38,28.50
2017,09,04,11,39,28.60
2017,09,04,11,40,28.60
2017,09,04,11,41,28.60
2017,09,04,11,42,28.70
2017,09,04,11,43,28.70
2017,09,04,11,44,28.60
2017,09,04,11,45,28.60
2017,09,04,11,46,28.60
2017,09,04,11,47,28.60
2017,09,04,11,48,28.60
2017,09,04,11,49,28.70
2017,09,04,11,50,28.70
2017,09,04,11,51,28.80
2017,09,04,11,52,28.80
2017,09,04,11,53,28.80
2017,09,04,11,54,28.90
2017,09,04,11,55,28.90
2017,09,04,11,56,28.90
2017,09,04,11,57,29.00
2017,09,04,11,58,29.00
2017,09,04,11,59,29.00
2017,09,04,12,00,29.10
2017,09,04,12,01,29.10
2017,09,04,12,02,29.10
2017,09,04,12,03,29.10
2017,09,04,12,04,29.20
2017,09,04,12,05,29.20
2017,09,04,12,06,29.20
2017,09,04,12,07,29.30
2017,09,04,12,08,29.30
2017,09,04,12,09,29.40
2017,09,04,12,10,29.50
2017,09,04,12,11,29.50
2017,09,04,12,12,29.60
2017,09,04,12,13,29.60
2017,09,04,12,14,29.70
2017,09,04,12,15,29.70
2017,09,04,12,16,29.80
2017,09,04,12,17,29.80
2017,09,04,12,18,29.80
2017,09,04,12,19,29.80
2017,09,04,12,20,29.90
2017,09,04,12,21,29.90
2017,09,04,12,22,29.90
2017,09,04,12,23,29.90
2017,09,04,12,24,30.00
2017,09,04,12,25,30.00
2017,09,04,12,26,30.10
2017,09,04,12,27,30.10
2017,09,04,12,28,30.10
2017,09,04,12,29,30.10
2017,09,04,12,30,30.20
2017,09,04,12,31,30.20
2017,09,04,12,32,30.20
2017,09,04,12,33,30.20
2017,09,04,12,34,30.20
2017,09,04,12,35,30.30
2017,09,04,12,36,30.30
2017,09,04,12,37,30.30
2017,09,04,12,38,30.30
2017,09,04,12,39,30.30
2017,09,04,12,40,30.30
2017,09,04,12,41,30.30
2017,09,04,12,42,30.30
2017,09,04,12,43,30.30
2017,09,04,12,44,30.30
2017,09,04,12,45,30.30
2017,09,04,12,46,30.30
2017,09,04,12,47,30.40
2017,09,04,12,48,30.40
2017,09,04,12,49,30.40
2017,09,04,12,50,30.40
2017,09,04,12,51,30.40
2017,09,04,12,52,30.40
2017,09,04,12,53,30.40
2017,09,04,12,54,30.50
2017,09,04,12,55,30.50
2017,09,04,12,56,30.60
2017,09,04,12,57,30.60
2017,09,04,12,58,30.60
2017,09,04,12,59,30.60
2017,09,04,13,00,30.70
2017,09,04,13,01,30.70
2017,09,04,13,02,30.70
2017,09,04,13,03,30.70
2017,09,04,13,04,30.70
2017,09,04,13,05,30.70
2017,09,04,13,06,30.70
2017,09,04,13,07,30.80
2017,09,04,13,08,30.80
2017,09,04,13,09,30.80
2017,09,04,13,10,30.80
2017,09,04,13,11,30.80
2017,09,04,13,12,30.90
2017,09,04,13,13,30.80
2017,09,04,13,14,30.80
2017,09,04,13,15,30.80
2017,09,04,13,16,30.80
2017,09,04,13,17,30.80
2017,09,04,13,18,30.80
2017,09,04,13,19,30.90
2017,09,04,13,20,30.90
2017,09,04,13,21,31.00
2017,09,04,13,22,31.00
2017,09,04,13,23,31.00
2017,09,04,13,24,31.10
2017,09,04,13,25,31.10
2017,09,04,13,26,31.10
2017,09,04,13,27,31.10
2017,09,04,13,28,31.20
2017,09,04,13,29,31.20
2017,09,04,13,30,31.20
2017,09,04,13,31,31.30
2017,09,04,13,32,31.30
2017,09,04,13,33,31.30
2017,09,04,13,34,31.30
2017,09,04,13,35,31.30
2017,09,04,13,36,31.40
2017,09,04,13,37,31.40
2017,09,04,13,38,31.40
2017,09,04,13,39,31.40
2017,09,04,13,40,31.40
2017,09,04,13,41,31.40
2017,09,04,13,42,31.40
2017,09,04,13,43,31.40
2017,09,04,13,44,31.40
2017,09,04,13,45,31.40
2017,09,04,13,46,31.40
2017,09,04,13,47,31.40
2017,09,04,13,48,31.40
2017,09,04,13,49,31.50
2017,09,04,13,50,31.50
2017,09,04,13,51,31.50
2017,09,04,13,52,31.50
2017,09,04,13,53,31.50
2017,09,04,13,54,31.40
2017,09,04,13,55,31.40
2017,09,04,13,56,31.40
2017,09,04,13,57,31.40
2017,09,04,13,58,31.40
2017,09,04,13,59,31.50
2017,09,04,14,00,31.50
2017,09,04,14,01,31.50
2017,09,04,14,02,31.50
2017,09,04,14,03,31.60
2017,09,04,14,04,31.60
2017,09,04,14,05,31.60
2017,09,04,14,06,31.60
2017,09,04,14,07,31.60
2017,09,04,14,08,31.60
2017,09,04,14,09,31.70
2017,09,04,14,10,31.70
2017,09,04,14,11,31.70
2017,09,04,14,12,31.80
2017,09,04,14,13,31.80
2017,09,04,14,14,31.80
2017,09,04,14,15,31.80
2017,09,04,14,16,31.80
2017,09,04,14,17,31.80
2017,09,04,14,18,31.90
2017,09,04,14,19,31.90
2017,09,04,14,20,31.90
2017,09,04,14,21,31.90
2017,09,04,14,22,31.90
2017,09,04,14,23,31.90
2017,09,04,14,24,31.90
2017,09,04,14,25,31.90
2017,09,04,14,26,32.00
2017,09,04,14,27,32.00
2017,09,04,14,28,32.00
2017,09,04,14,29,32.10
2017,09,04,14,30,32.10
2017,09,04,14,31,32.10
2017,09,04,14,32,32.10
2017,09,04,14,33,32.10
2017,09,04,14,34,32.20
2017,09,04,14,35,32.20
2017,09,04,14,36,32.20
2017,09,04,14,37,32.30
2017,09,04,14,38,32.30
2017,09,04,14,39,32.30
2017,09,04,14,40,32.30
2017,09,04,14,41,32.30
2017,09,04,14,42,32.30
2017,09,04,14,43,32.30
2017,09,04,14,44,32.30
2017,09,04,14,45,32.20
2017,09,04,14,46,32.20
2017,09,04,14,47,32.20
2017,09,04,14,48,32.20
2017,09,04,14,49,32.20
2017,09,04,14,50,32.20
2017,09,04,14,51,32.10
2017,09,04,14,52,32.10
2017,09,04,14,53,32.10
2017,09,04,14,54,32.10
2017,09,04,14,55,32.20
2017,09,04,14,56,32.20
2017,09,04,14,57,32.20
2017,09,04,14,58,32.30
2017,09,04,14,59,32.30
2017,09,04,15,00,32.30
2017,09,04,15,01,32.30
2017,09,04,15,02,32.40
2017,09,04,15,03,32.40
2017,09,04,15,04,32.50
2017,09,04,15,05,32.50
2017,09,04,15,06,32.50
2017,09,04,15,07,32.60
2017,09,04,15,08,32.60
2017,09,04,15,09,32.60
2017,09,04,15,10,32.60
2017,09,04,15,11,32.60
2017,09,04,15,12,32.50
2017,09,04,15,13,32.50
2017,09,04,15,14,32.50
2017,09,04,15,15,32.50
2017,09,04,15,16,32.50
2017,09,04,15,17,32.40
2017,09,04,15,18,32.40
2017,09,04,15,19,32.40
2017,09,04,15,20,32.40
2017,09,04,15,21,32.40
2017,09,04,15,22,32.40
2017,09,04,15,23,32.40
2017,09,04,15,24,32.40
2017,09,04,15,25,32.40
2017,09,04,15,26,32.40
2017,09,04,15,27,32.40
2017,09,04,15,28,32.40
2017,09,04,15,29,32.40
2017,09,04,15,30,32.40
2017,09,04,15,31,32.40
2017,09,04,15,32,32.40
2017,09,04,15,33,32.40
2017,09,04,15,34,32.40
2017,09,04,15,35,32.40
2017,09,04,15,36,32.50
2017,09,04,15,37,32.50
2017,09,04,15,38,32.50
2017,09,04,15,39,32.50
2017,09,04,15,40,32.60
2017,09,04,15,41,32.60
2017,09,04,15,42,32.60
2017,09,04,15,43,32.60
2017,09,04,15,44,32.60
2017,09,04,15,45,32.60
2017,09,04,15,46,32.70
2017,09,04,15,47,32.70
2017,09,04,15,48,32.70
2017,09,04,15,49,32.70
2017,09,04,15,50,32.80
2017,09,04,15,51,32.80
2017,09,04,15,52,32.80
2017,09,04,15,53,32.80
2017,09,04,15,54,32.80
2017,09,04,15,55,32.70
2017,09,04,15,56,32.70
2017,09,04,15,57,32.70
2017,09,04,15,58,32.60
2017,09,04,15,59,32.60
2017,09,04,16,00,32.60
2017,09,04,16,01,32.60
2017,09,04,16,02,32.60
2017,09,04,16,03,32.60
2017,09,04,16,04,32.60
2017,09,04,16,05,32.60
2017,09,04,16,06,32.60
2017,09,04,16,07,32.60
2017,09,04,16,08,32.70
2017,09,04,16,09,32.70
2017,09,04,16,10,32.70
2017,09,04,16,11,32.80
2017,09,04,16,12,32.80
2017,09,04,16,13,32.90
2017,09,04,16,14,32.90
2017,09,04,16,15,32.90
2017,09,04,16,16,32.90
2017,09,04,16,17,33.00
2017,09,04,16,18,33.00
2017,09,04,16,19,33.00
2017,09,04,16,20,33.00
2017,09,04,16,21,33.00
2017,09,04,16,22,33.00
2017,09,04,16,23,33.00
2017,09,04,16,24,33.00
2017,09,04,16,25,33.00
2017,09,04,16,26,33.00
2017,09,04,16,27,33.00
2017,09,04,16,28,33.00
2017,09,04,16,29,33.00
2017,09,04,16,30,33.10
2017,09,04,16,31,33.10
2017,09,04,16,32,33.10
2017,09,04,16,33,33.20
2017,09,04,16,34,33.20
2017,09,04,16,35,33.30
2017,09,04,16,36,33.30
2017,09,04,16,37,33.30
2017,09,04,16,38,33.30
2017,09,04,16,39,33.40
2017,09,04,16,40,33.40
2017,09,04,16,41,33.30
2017,09,04,16,42,33.30
2017,09,04,16,43,33.30
2017,09,04,16,44,33.20
2017,09,04,16,45,33.10
2017,09,04,16,46,33.10
2017,09,04,16,47,33.00
2017,09,04,16,48,32.90
2017,09,04,16,49,32.90
2017,09,04,16,50,32.80
2017,09,04,16,51,32.80
2017,09,04,16,52,32.80
2017,09,04,16,53,32.80
2017,09,04,16,54,32.80
2017,09,04,16,55,32.70
2017,09,04,16,56,32.70
2017,09,04,16,57,32.70
2017,09,04,16,58,32.70
2017,09,04,16,59,32.60
2017,09,04,17,00,32.60
2017,09,04,17,01,32.60
2017,09,04,17,02,32.60
2017,09,04,17,03,32.60
2017,09,04,17,04,32.60
2017,09,04,17,05,32.60
2017,09,04,17,06,32.60
2017,09,04,17,07,32.60
2017,09,04,17,08,32.60
2017,09,04,17,09,32.60
2017,09,04,17,10,32.60
2017,09,04,17,11,32.60
2017,09,04,17,12,32.60
2017,09,04,17,13,32.60
2017,09,04,17,14,32.60
2017,09,04,17,15,32.60
2017,09,04,17,16,32.60
2017,09,04,17,17,32.60
2017,09,04,17,18,32.60
2017,09,04,17,19,32.60